This is the latest recevied weather packets stored in our database for station/object AI5KP-13. If no packets are shown the sender has not sent any weather packets the latest 1 day(s).
| Time | Temp. | Humidity | Pressure | Rain* | Wind** | Luminosity | Snow |
|---|---|---|---|---|---|---|---|
| 1777999186 | 21.67° C | 80% | 1004.7 hPa | 0 mm | 1.79 m/s, 177° | 332 W/m² | - |
| 1777998884 | 21.67° C | 80% | 1004.8 hPa | 0 mm | 2.24 m/s, 135° | 373 W/m² | - |
| 1777998584 | 21.67° C | 81% | 1004.4 hPa | 0 mm | 2.24 m/s, 134° | 346 W/m² | - |
| 1777998279 | 21.67° C | 81% | 1004.5 hPa | 0 mm | 0.89 m/s, 155° | 289 W/m² | - |
| 1777997976 | 22.22° C | 79% | 1004.5 hPa | 0 mm | 3.13 m/s, 213° | 304 W/m² | - |
| 1777997673 | 22.22° C | 79% | 1004.5 hPa | 0 mm | 1.34 m/s, 159° | 324 W/m² | - |
| 1777997370 | 22.78° C | 78% | 1004.4 hPa | 0 mm | 2.24 m/s, 133° | 420 W/m² | - |
| 1777997069 | 22.22° C | 80% | 1004.2 hPa | 0 mm | 1.79 m/s, 148° | 471 W/m² | - |
| 1777996764 | 22.22° C | 80% | 1003.9 hPa | 0 mm | 0.89 m/s, 208° | 446 W/m² | - |
| 1777996461 | 22.22° C | 79% | 1003.8 hPa | 0 mm | 1.79 m/s, 142° | 396 W/m² | - |
| 1777996157 | 22.78° C | 79% | 1003.9 hPa | 0 mm | 0.89 m/s, 133° | 543 W/m² | - |
| 1777995853 | 22.22° C | 80% | 1004 hPa | 0 mm | 1.34 m/s, 159° | 506 W/m² | - |
| 1777995550 | 21.67° C | 81% | 1004 hPa | 0 mm | 3.13 m/s, 143° | 497 W/m² | - |
| 1777995247 | 21.67° C | 81% | 1003.9 hPa | 0 mm | 3.13 m/s, 143° | 500 W/m² | - |
| 1777994944 | 21.11° C | 81% | 1004 hPa | 0 mm | 2.24 m/s, 99° | 512 W/m² | - |
| 1777994642 | 21.11° C | 81% | 1003.9 hPa | 0 mm | 3.13 m/s, 191° | 487 W/m² | - |
| 1777994341 | 21.11° C | 81% | 1003.9 hPa | 0 mm | 2.68 m/s, 173° | 469 W/m² | - |
| 1777994038 | 20.56° C | 83% | 1004 hPa | 0 mm | 1.79 m/s, 183° | 461 W/m² | - |
| 1777993729 | 20° C | 84% | 1003.9 hPa | 0 mm | 3.58 m/s, 104° | 308 W/m² | - |
| 1777993427 | 20° C | 84% | 1004.1 hPa | 0 mm | 1.79 m/s, 163° | 244 W/m² | - |
| 1777993126 | 20° C | 85% | 1004 hPa | 0 mm | 0.45 m/s, 163° | 247 W/m² | - |
| 1777992825 | 20° C | 85% | 1004.2 hPa | 0 mm | 3.13 m/s, 127° | 254 W/m² | - |
| 1777992522 | 20° C | 85% | 1004.1 hPa | 0 mm | 1.79 m/s, 156° | 243 W/m² | - |
| 1777992221 | 20° C | 85% | 1004.3 hPa | 0 mm | 4.02 m/s, 116° | 234 W/m² | - |
| 1777991917 | 20° C | 85% | 1004.5 hPa | 0 mm | 1.34 m/s, 161° | 225 W/m² | - |
* Rain latest hour (hover to see other rain measurements)
** Current wind speed in m/s (hover to see current wind gust speed)